This demonstration page uses our WeatherBlox Daily Observations layout. Learn more.

Left ArrowRight Arrow

Hourly Observations for March 28, 2018

Temp ( °F °C ) Dew Point ( °F °C ) Humidity (%) Winds ( mph kmh ) Pressure ( in mb ) Visibility ( mi km ) Precip ( " mm )
12:54 am 00:54 Clear 37 2.8 32 0 82 82 SSE 3 6 30.06 1018 10 16 0.00 0.00
1:54 am 01:54 Clear 32 0 29 -1.7 88 88 Calm 30.05 1018 7 11 0.00 0.00
2:54 am 02:54 Clear 34 1.1 31 -0.6 89 89 SSE 6 9 30.04 1017 7 11 0.00 0.00
3:54 am 03:54 Clear with Mist and Fog 31 -0.6 30 -1.1 96 96 S 6 9 30.00 1016 5 8 0.00 0.00
4:54 am 04:54 Clear with Mist and Fog 31 -0.6 30 -1.1 96 96 S 7 11 29.96 1015 4 6 0.00 0.00
5:54 am 05:54 Clear with Mist and Fog 30 -1.1 29 -1.7 96 96 S 5 7 29.96 1014 3 5 0.00 0.00
6:05 am 06:05 Clear with Mist and Fog 30 -1.1 29 -1.7 96 96 S 6 9 30.00 1016 2 3 0.00 0.00
6:18 am 06:18 Clear with Mist and Fog 31 -0.6 30 -1.1 96 96 SSE 6 9 30.00 1016 4 6 0.00 0.00
6:54 am 06:54 Clear with Mist and Fog 32 0 31 -0.6 96 96 Calm 29.95 1014 4 6 0.00 0.00
7:24 am 07:24 Sunny with Mist and Fog 31 -0.6 31 -0.6 100 100 S 3 6 30.00 1016 2 3 0.00 0.00
7:35 am 07:35 Sunny with Mist and Fog 31 -0.6 30 -1.1 96 96 SSE 3 6 30.00 1016 3 5 0.00 0.00
7:54 am 07:54 Sunny with Mist and Fog 31 -0.6 30 -1.1 96 96 Calm 29.96 1015 3 5 0.00 0.00
8:54 am 08:54 Sunny with Mist and Fog 37 2.8 34 1.1 89 89 Calm 29.97 1015 3 5 0.00 0.00
9:54 am 09:54 Sunny with Mist and Fog 42 5.6 38 3.3 85 85 S 8 13 29.97 1015 5 8 0.00 0.00
10:54 am 10:54 Sunny 48 8.9 38 3.3 68 68 SW 9 15 29.96 1015 10 16 0.00 0.00
11:54 am 11:54 Sunny 52 11.1 36 2.2 55 55 SW 10 17 29.95 1014 10 16 0.00 0.00
12:54 pm 12:54 Sunny 53 11.7 36 2.2 52 52 S 12 19 29.92 1013 10 16 0.00 0.00
1:54 pm 13:54 Mostly Cloudy 54 12.2 35 1.7 49 49 SSW 12 19 29.90 1013 10 16 0.00 0.00
2:54 pm 14:54 Mostly Cloudy 57 13.9 37 2.8 47 47 S 9 15 29.86 1011 10 16 0.00 0.00
3:54 pm 15:54 Mostly Cloudy 58 14.4 36 2.2 44 44 WSW 6 9 29.85 1011 10 16 0.00 0.00
4:54 pm 16:54 Cloudy 58 14.4 35 1.7 42 42 W 9 15 29.84 1010 10 16 0.00 0.00
5:54 pm 17:54 Cloudy 56 13.3 36 2.2 47 47 W 7 11 29.84 1011 10 16 0.00 0.00
6:54 pm 18:54 Cloudy with Light Rain 50 10 43 6.1 77 77 NNW 12 19 29.88 1012 5 8 0.05 1.27
7:54 pm 19:54 Cloudy with Light Rain 48 8.9 44 6.7 86 86 NNW 6 9 29.90 1013 9 14 0.01 0.25
8:54 pm 20:54 Cloudy 49 9.4 42 5.6 77 77 N 18 30 29.93 1014 10 16 0.00 0.03
9:54 pm 21:54 Mostly Cloudy 45 7.2 39 3.9 80 80 N 22 35 29.97 1015 10 16 0.00 0.00
10:50 pm 22:50 Cloudy 45 7 37 3 76 76 N 22 35 30.00 1016 10 16 0.00 0.00
10:54 pm 22:54 Cloudy 43 6.1 37 2.8 80 80 N 23 37 29.98 1015 10 16 0.00 0.00
11:54 pm 23:54 Cloudy 43 6.1 37 2.8 80 80 N 20 31 30.00 1016 10 16 0.00 0.00

Powered by AerisWeather